Regional Weather Roundup
Issued by NWS

Home | Current Version | Previous Version | Text Only | Print | Product List | Glossary On
Versions: 1 2 3 4 5 6 7 8 9 10 11 12 13 14 15 16 17 18 19 20 21 22 23 24 25 26 27 28 29 30 31 32 33 34 35 36 37 38 39 40 41 42 43 44 45 46 47 48 49 50
000
ASUS45 KBOU 182307
RWRCO

WEATHER ROUNDUP FOR COLORADO
NATIONAL WEATHER SERVICE DENVER/BOULDER CO
500 PM MDT SAT APR 18 2015

NOTE: "FAIR" INDICATES FEW OR NO CLOUDS BELOW 12000 FEET WITH NO
SIGNIFICANT WEATHER AND/OR OBSTRUCTIONS TO VISIBILITY.

COZ001>005-013-030-031-190000-
...NORTHWEST COLORADO...

CITY           SKY/WX    TMP DP  RH WIND       PRES   REMARKS
CRAIG          LGT RAIN  35  33  92 W6        30.01R WCI  30
HAYDEN         CLOUDY    32  30  93 W6        30.00R VSB 1/4 WCI  26
MEEKER         LGT RAIN  39  32  76 NE15      29.99F
MOUNT WERNER   NOT AVBL
STEAMBOAT SPGS CLOUDY    33  32  95 CALM      30.00R
WALDEN         CLOUDY    34  28  80 NW5       29.96S WCI  30
$$

COZ006>008-011-190000-
...WEST CENTRAL VALLEYS...

CITY           SKY/WX    TMP DP  RH WIND       PRES   REMARKS
GRAND JUNCTION PTSUNNY   45  39  79 E12       30.00R
MONTROSE       CLOUDY    41  36  82 CALM      30.04R
EAGLE          CLOUDY    39  34  81 CALM      30.00R
RIFLE          LGT SNOW  34  32  92 S3        30.03S FOG
DELTA          CLOUDY    42  38  86 E3        30.02S
NUCLA          CLOUDY    50  37  62 E5        30.03S
$$

COZ017>023-064>068-190000-
...SOUTHWEST COLORADO...

CITY           SKY/WX    TMP DP  RH WIND       PRES   REMARKS
DURANGO        CLOUDY    50  26  39 N13       29.93R
CORTEZ         PTSUNNY   57  34  41 NW13G20   29.97F
PAGOSA SPRINGS CLOUDY    44  28  54 E3        29.95S
TELLURIDE      LGT SNOW  31  31 100 W13G18    30.06R VSB 3/4 WCI  22
WOLF CREEK PAS SNOW      21  21 100 SW10      30.03R VSB 1/4 WCI  10
$$

COZ009-010-012-014-032>034-037-058>063-190000-
...CENTRAL COLORADO...

CITY           SKY/WX    TMP DP  RH WIND       PRES   REMARKS
ASPEN          CLOUDY    33  28  81 N6        29.98R WCI  28
BUENA VISTA    PTSUNNY   37  25  61 CALM      29.89F
COPPER MTN     CLOUDY    27  19  74 W23G31    29.96S WCI  12
BERTHOUD PASS  SNOW      18  10  73 N12G28    29.97R VSB<1/4 WCI   5
COTTONWOOD PAS PTSUNNY   37  21  52 W14G21    29.92S
GUNNISON       CLOUDY    37  30  75 SW3       29.99S
KREMMLING      PTSUNNY   41  30  65 W14       29.95R
LEADVILLE      PTSUNNY   30  18  60 NW15G26   29.93R WCI  19
MONARCH PASS   CLOUDY    19  18  93 MISG      30.05S
SALIDA         PTSUNNY   44  25  47 W14G21    29.96S
SUNLIGHT       SNOW      28  27  93 CALM      30.05S VSB 1/2
WILKERSON PASS LGT SNOW  27  23  86 CALM      29.95S
$$

COZ069>075-190000-
...SAN LUIS VALLEY/SANGRE DE CRISTO MOUNTAINS...

CITY           SKY/WX    TMP DP  RH WIND       PRES   REMARKS
ALAMOSA        CLOUDY    43  29  57 W8        29.90F
LA VETA PASS   LGT SNOW  30  23  74 SW3       29.91S
SAGUACHE       PTSUNNY   43  25  49 N17G24    29.90F
$$

COZ035-036-038>040-190000-
...NORTHERN COLORADO FRONT RANGE...

CITY           SKY/WX    TMP DP  RH WIND       PRES   REMARKS
DENVER INTL AP LGT RAIN  45  34  65 NE12      29.86S
DMNS CITY PARK   N/A     51  29  43 NE12G17   29.86R
AURORA         PTSUNNY   49  34  57 NE20      29.87R
FRONT RANGE AP PTSUNNY   46  37  71 NW14      29.88R
ERIE MUNI ARPT PTSUNNY   51  32  48 N8        29.87R
BOULDER MUN AP CLOUDY    46  34  61 NW8       29.88R
CENTENNIAL     PTSUNNY   49  31  49 N15       29.86R
BROOMFIELD     PTSUNNY   48  32  53 N14       29.88R
FORT COLLINS   PTSUNNY   52  36  54 N10       29.89S
LONGMONT       PTSUNNY   52  34  50 NW6       29.89S
$$

COZ041-046-047-076>085-087-088-190000-
...PIKES PEAK/PALMER DIVIDE AND SOUTHERN FOOTHILLS...

CITY           SKY/WX    TMP DP  RH WIND       PRES   REMARKS
COLO. SPRINGS  PTSUNNY   44  31  60 SE8       29.86R THUNDER
A. F. ACADEMY  PTSUNNY   47  27  45 N15G23    29.85R
ELLICOTT       PTSUNNY  N/A N/A N/A W7        29.85F
FALCON         PTSUNNY   48  26  42 NW7       29.88S
FORT CARSON    DRIZZLE   46  34  61 SE12      29.85R
LIMON          PTSUNNY   47  35  63 N13       29.83S
MONUMENT HILL  MOSUNNY   43  32  65 W9        29.86F
TRINIDAD       CLOUDY    52  20  28 W10G25    29.83R
$$

COZ042>045-048>051-090-091-190000-
...NORTHEAST COLORADO...

CITY           SKY/WX    TMP DP  RH WIND       PRES   REMARKS
GREELEY ARPT   PTSUNNY   46  36  66 W3        29.88F
AKRON          CLOUDY    49  38  65 N12       29.84R
BURLINGTON     CLOUDY    50  39  66 NW22      29.80F
WRAY           CLOUDY    51  43  73 NW12G17   29.82R
STERLING       CLOUDY    46  43  87 N12       29.85S
HOLYOKE        CLOUDY    54  41  62 NW8       29.84R THUNDER
FORT MORGAN    LGT RAIN  51  41  67 NE13      29.85S
$$

COZ086-089-092>099-190000-
...SOUTHEAST COLORADO...

CITY           SKY/WX    TMP DP  RH WIND       PRES   REMARKS
PUEBLO         PTSUNNY   49  32  52 E15       29.83S
LA JUNTA       PTSUNNY   54  31  41 NW24G31   29.81F
LAMAR          CLOUDY    52  34  50 W15       29.79S
SPRINGFIELD      N/A     54  33  45 N6        29.81F
$$



USA.gov is the U.S. government's official web portal to all federal, state and local government web resources and services.